Showing default

USA 16, 16624

Orbit data source: Space-Track

USA 16, 16624 is an American payload satellite in LEO that was launched on Sun, 09 Feb 1986 UTC via an ATLAS H launch vehicle from the Air Force Western Test Range (AFWTR). Payload-class satellites include a variety of spacecraft equipped with specific instruments for various scientific and technological missions. These include communications satellites like Starlink; space stations such as the ISS; scientific satellites like the Hubble; Earth observation satellites from companies like Planet Labs, Umbra, and HawkEye 360; GPS; miniature CubeSats for education and research; and military/defense satellites.

Loading next visibility...
Identifier
16624, 1986-014E
Orbit
LEO
Country
Flag of USUS
Related business
Manufacturer
Martin Marietta
Mission
Spacecraft
Bus & Motor
NOSS SSU, Unknown motor
Mass
200 kg wet, 200 kg dry
Launch date (UTC)
1986-02-09 (40 years ago)
Launch vehicle
ATLAS H
Launch site
Air Force Western Test Range (AFWTR)
Object type
Payload
Rocket body
Debris
Shape & HBR
Unknown
Radar Cross Section
Large (>1 m²)

Expand to show TLE details & history
Last TLE update: 2 days ago

TLE from 2 days ago
0 USA 16
1 16624U 86014E   26171.27570030  .00002806  00000-0  28487-3 0  9997
2 16624  63.3000 107.6741 0793604 116.3114 252.1640 13.72048147349378
Epoch: 2026-06-20T06:37Z
TLE epoch observation values (Epoch: 2026-06-20T06:37:00.505Z)
Latitude
-0.00005°
Longitude
99.92932°
Altitude
1,213.65 km
Speed
7.139 km/s
True Right ascension
07h 10m 41s
True Declination
0° 00' 00"
Sunlit
Object was in daylight at epoch
Visualization orbit readout
Latitude
Unknown
Longitude
Unknown
Altitude
Unknown
Speed
Unknown
Apparent Right ascension
Unknown
Apparent Declination
Unknown
Sunlit
N/A
Visualization observer readout
Local Sidereal Time
23:08:01
Azimuth
Unknown
Elevation
Unknown
Doppler factor
Unknown
Orbital elements
Apogee altitude
1,575.863 km
Perigee altitude
406.221 km
Semi-major axis
7,369.179 km
Eccentricity
0.07936
Inclination
63.3°
RAAN
107.6741°
Arg. of periapsis
116.3114°
True anomaly
243.79238°
Mean anomaly
252.164°
Eccentric anomaly
247.94958°
Mean motion
3.43095 °/min
Orbital period
104.93 mins
BSTAR
0.00028487
Loading maneuver chart data...
Computing Atmospheric mass density...
Loading historical data...
Loading historical data...
Loading historical data...
Loading historical data...
Loading historical data...
Loading historical data...
Loading historical data...

Documentation

Showing up to 5 results
|